Location: Auckland
(36.8670°S, 174.7670°E)
Time: 22:11:44
(UTC+13:00)

Cosmos 1741 Rocket - Pass Details

Date: 24 January 2019
Orbit: 761 x 783 km, 74.0° (Epoch: 17 October)

Event Time Altitude Azimuth Distance (km) Brightness Sun altitude
Rises 21:20:11 0° 338° (NNW) 3,251 7.2 -8.2°
Reaches altitude 10° 21:22:33 10° 335° (NNW) 2,334 6.4 -8.6°
Maximum altitude 21:27:51 70° 251° (WSW) 841 4.5 -9.5°
Drops below altitude 10° 21:33:14 10° 167° (SSE) 2,370 6.8 -10.4°
Sets 21:35:40 0° 164° (SSE) 3,306 7.5 -10.8°
